Location: Bratsk-Energetik
(56.3300°N, 101.7600°E)
Time: 14:29:53
(UTC+08:00)

ISS - Pass Details

Date: 17 July 2018
Orbit: 402 x 408 km, 51.6° (Epoch: 16 July)

Event Time Altitude Azimuth Distance (km) Brightness Sun altitude
Exits shadow 03:03:22 - 256° (WSW) 1,982 -0.7 -9.3°
Reaches altitude 10° 03:04:41 10° 250° (WSW) 1,468 -1.4 -9.3°
Maximum altitude 03:07:44 36° 182° (S) 666 -3.2 -9.1°
Drops below altitude 10° 03:10:47 10° 114° (ESE) 1,470 -1.0 -8.9°
Sets 03:12:58 0° 105° (ESE) 2,331 0.2 -8.8°
